Location: ???????
(55.8719°N, 38.1523°E)
Time: 17:05:10
(UTC+00:00)

Cosmos 923 Rocket - Pass Details

Date: 14 April 2024
Orbit: 755 x 784 km, 74.0° (Epoch: 23 May)

Event Time Altitude Azimuth Distance (km) Brightness Sun altitude
Exits shadow 01:02:01 - 195° (SSW) 2,534 6.2 -11.0°
Reaches altitude 10° 01:02:39 10° 194° (SSW) 2,296 6.0 -11.0°
Maximum altitude 01:07:48 67° 113° (ESE) 835 4.3 -10.4°
Drops below altitude 10° 01:13:03 10° 32° (NNE) 2,331 7.7 -9.8°
Sets 01:15:28 0° 30° (NNE) 3,267 8.5 -9.5°
